HB9TUO-2 Weather Reports


time (UTC)temp
C
wind
direction
speed
KPH
gust
KPH
rain 1hr
cm
rain 24hr
cm
rain mn
cm
humidity
%
barometer
mb
20260506114503 6 128 3.2 9.7 0.20 2.29 1.30 92 1006.0
20260506114003 7 10 6.4 12.9 0.13 2.21 1.19 87 1005.8
20260506113503 8 323 1.6 17.7 0.10 2.18 1.17 86 1005.8
20260506113003 8 333 4.8 17.7 0.10 2.16 1.14 87 1005.6
20260506112503 8 328 6.4 17.7 0.10 2.16 1.14 87 1005.8
20260506112003 8 332 8.0 17.7 0.13 2.16 1.14 87 1005.5
20260506111503 8 337 6.4 12.9 0.13 2.16 1.14 87 1005.3
20260506111004 8 336 4.8 19.3 0.15 2.18 1.14 87 1005.4
20260506110503 8 320 4.8 19.3 0.18 2.16 1.12 87 1005.5
20260506110003 8 323 11.3 19.3 0.18 2.18 1.12 87 1005.3
20260506105503 8 19 9.7 16.1 0.18 2.18 1.12 89 1005.7
20260506105003 8 338 3.2 9.7 0.20 2.18 1.12 89 1005.9
20260506104503 8 343 6.4 9.7 0.20 2.18 1.09 90 1005.8
20260506104003 8 355 4.8 6.4 0.23 2.18 1.09 90 1005.3
20260506103503 8 319 3.2 11.3 0.20 2.16 1.04 91 1005.8
20260506103003 7 336 3.2 11.3 0.20 2.16 1.04 91 1005.7
20260506102503 7 8 3.2 9.7 0.20 2.16 1.04 92 1005.9
20260506102003 7 280 3.2 9.7 0.18 2.16 1.02 92 1006.1
20260506101503 7 339 1.6 6.4 0.18 2.16 1.02 91 1005.9
20260506101003 7 99 3.2 6.4 0.15 2.13 0.99 91 1005.8
20260506100504 7 101 1.6 6.4 0.13 2.06 0.94 91 1005.8
20260506100004 7 8 1.6 22.5 0.13 2.06 0.94 91 1005.6
20260506095504 7 93 6.4 22.5 0.13 2.11 0.94 92 1005.5
20260506095004 7 129 17.7 22.5 0.10 2.06 0.89 92 1005.3
20260506094504 7 192 1.6 17.7 0.05 2.03 0.86 92 1005.4
20260506094004 7 231 3.2 12.9 0.03 2.01 0.84 91 1005.6
20260506093504 7 180 0.0 8.0 0.03 2.01 0.84 94 1005.5
20260506093217 7 160 1.6 8.0 0.03 2.01 0.84 90 1005.5
20260506092504 8 113 0.0 6.4 0.03 2.03 0.84 90 1005.4
20260506092004 8 33 3.2 6.4 0.03 2.03 0.84 90 1005.3
20260506091504 8 338 0.0 12.9 0.03 2.03 0.84 91 1005.4
20260506091004 8 350 6.4 12.9 0.03 2.03 0.84 92 1005.3
20260506090504 8 358 6.4 12.9 0.00 2.01 0.81 96 1005.4
20260506090004 8 313 3.2 16.1 0.00 2.03 0.81 98 1005.3
20260506085504 8 306 4.8 16.1 0.00 2.03 0.81 99 1005.2
20260506085216 8 311 9.7 16.1 0.00 2.03 0.81 99 1005.1
20260506084504 7 353 1.6 9.7 0.00 2.03 0.81 99 1005.3
20260506084004 8 249 1.6 6.4 0.00 2.03 0.81 99 1005.4
20260506083504 7 174 6.4 8.0 0.00 2.03 0.81 99 1005.1
20260506083003 8 143 3.2 8.0 0.00 2.06 0.81 99 1005.2
20260506082503 8 182 0.0 6.4 0.00 2.06 0.81 99 1005.3
20260506082004 8 180 1.6 6.4 0.00 2.11 0.81 99 1005.3
20260506081503 7 241 3.2 6.4 0.00 2.13 0.81 99 1005.3
20260506081003 7 332 3.2 4.8 0.00 2.16 0.81 99 1005.5
20260506080503 7 245 3.2 9.7 0.00 2.26 0.81 98 1005.2
20260506080216 7 139 3.2 12.9 0.00 2.26 0.81 98 1005.4
20260506073503 7 84 8.0 11.3 0.03 2.51 0.81 99 1005.5
20260506073003 7 287 0.0 6.4 0.03 2.54 0.81 99 1005.6
20260506072504 7 346 1.6 8.0 0.05 2.59 0.81 99 1005.6
20260506072214 7 310 4.8 8.0 0.05 2.62 0.81 99 1005.9
20260506071503 7 313 3.2 8.0 0.05 2.67 0.81 99 1005.7
20260506071215 7 340 3.2 6.4 0.10 2.67 0.81 99 1005.8
20260506070713 7 86 0.0 12.9 0.10 2.77 0.81 99 1005.6
20260506062504 6 358 4.8 6.4 0.15 2.87 0.76 99 1005.7
20260506062004 6 352 3.2 6.4 0.18 2.92 0.76 99 1005.6
20260506061504 6 323 1.6 6.4 0.18 2.95 0.76 99 1005.6
20260506061004 6 317 3.2 6.4 0.18 2.95 0.71 99 1005.7
20260506060504 6 324 1.6 3.2 0.18 2.95 0.69 99 1005.8
20260506051004 7 315 0.0 3.2 0.03 2.97 0.53 99 1006.4
20260506050504 7 329 0.0 1.6 0.03 2.97 0.51 99 1006.5
20260506045004 7 158 0.0 1.6 0.03 3.00 0.51 99 1006.4
20260506044504 7 315 0.0 1.6 0.05 3.00 0.51 99 1006.3
20260506044003 7 16 0.0 1.6 0.05 3.00 0.51 99 1006.3
20260506043717 7 344 0.0 3.2 0.05 3.00 0.51 99 1006.5
20260506043003 7 315 0.0 3.2 0.10 3.00 0.51 99 1006.4
20260506042504 7 315 0.0 3.2 0.13 3.00 0.51 99 1006.6
20260506042003 7 281 0.0 3.2 0.13 3.00 0.51 99 1006.6
20260506041503 7 203 0.0 1.6 0.13 3.00 0.51 99 1006.9
20260506041003 7 180 0.0 1.6 0.13 3.00 0.51 99 1006.8
20260506040503 7 360 0.0 1.6 0.10 3.00 0.48 99 1006.8
20260506040003 7 360 0.0 1.6 0.10 3.00 0.48 99 1006.8
20260506035503 7 360 0.0 1.6 0.10 3.00 0.48 99 1006.7
20260506035004 7 360 0.0 1.6 0.05 2.97 0.46 99 1006.8
20260506034503 7 340 0.0 3.2 0.05 2.97 0.46 99 1006.7
20260506034215 7 332 0.0 3.2 0.05 2.97 0.46 99 1006.8
20260506033504 7 331 0.0 1.6 0.05 2.97 0.46 99 1006.9
20260506033003 7 360 0.0 1.6 0.03 2.95 0.43 99 1007.1
20260506032714 7 360 0.0 1.6 0.05 2.95 0.43 99 1006.9
20260506032217 7 360 0.0 1.6 0.03 2.92 0.38 99 1007.1
20260506031503 7 327 0.0 3.2 0.03 2.92 0.38 99 1007.2
20260506031003 7 328 0.0 3.2 0.03 2.92 0.38 99 1007.3
20260506030503 7 344 0.0 3.2 0.03 2.92 0.38 99 1007.3
20260506030003 7 343 0.0 3.2 0.03 2.92 0.38 99 1007.1
20260506025504 7 360 0.0 1.6 0.05 2.92 0.38 99 1007.2
20260506025005 7 5 0.0 1.6 0.05 2.92 0.38 99 1007.4
20260506024504 7 20 0.0 1.6 0.10 2.92 0.38 99 1007.6
20260506024004 7 45 0.0 1.6 0.10 2.92 0.38 99 1007.6
20260506023504 7 45 0.0 1.6 0.10 2.92 0.38 99 1007.7
20260506023004 7 344 0.0 3.2 0.13 2.92 0.38 99 1007.8
20260506022715 7 319 0.0 3.2 0.10 2.87 0.38 99 1007.9
20260506022004 7 342 1.6 3.2 0.10 2.87 0.36 99 1007.7
20260506021504 7 359 0.0 3.2 0.10 2.87 0.36 99 1007.6
20260506021004 7 317 0.0 3.2 0.10 2.87 0.36 99 1007.9
20260506020504 7 316 3.2 6.4 0.10 2.87 0.36 99 1007.8
20260506020004 7 345 3.2 6.4 0.13 2.87 0.36 99 1007.9
20260506015504 7 103 1.6 4.8 0.10 2.84 0.33 99 1007.9
20260506015004 7 338 0.0 3.2 0.10 2.84 0.33 99 1007.9
20260506014504 7 360 0.0 1.6 0.10 2.82 0.30 99 1007.8
20260506014216 7 350 0.0 3.2 0.10 2.82 0.30 99 1007.7
20260506013504 7 352 1.6 3.2 0.05 2.79 0.28 99 1007.8
20260506013004 7 360 0.0 3.2 0.05 2.79 0.28 99 1008.0
20260506012715 7 347 1.6 3.2 0.05 2.79 0.28 99 1008.0
20260506012003 7 346 1.6 3.2 0.05 2.79 0.28 99 1008.1
20260506011503 7 360 0.0 1.6 0.10 2.79 0.28 99 1008.0
20260506011003 7 338 0.0 1.6 0.10 2.79 0.28 99 1008.2
20260506010503 7 30 0.0 1.6 0.10 2.79 0.28 99 1008.2
20260506010215 7 54 0.0 1.6 0.05 2.77 0.23 99 1008.4
20260506005503 7 9 0.0 3.2 0.05 2.77 0.23 99 1008.3
20260506005003 7 341 0.0 3.2 0.05 2.77 0.23 99 1008.4
20260506004504 7 324 1.6 3.2 0.03 2.72 0.20 99 1008.4
20260506004003 7 301 0.0 1.6 0.03 2.72 0.20 99 1008.4
20260506003503 7 330 0.0 1.6 0.03 2.72 0.20 99 1008.4
20260506003003 7 349 0.0 1.6 0.03 2.72 0.20 99 1008.6
20260506002503 7 350 0.0 1.6 0.03 2.72 0.20 99 1008.4
20260506002004 7 351 0.0 1.6 0.03 2.72 0.20 99 1008.6
20260506001503 7 324 0.0 1.6 0.00 2.69 0.18 99 1008.6
20260506001003 7 315 0.0 1.6 0.03 2.69 0.18 99 1008.6
20260506000503 7 315 0.0 1.6 0.03 2.69 0.18 99 1008.7
20260506000216 7 315 0.0 1.6 0.03 2.69 0.18 99 1008.6
20260505235503 7 117 0.0 1.6 0.05 2.69 0.18 99 1008.8
20260505235003 7 114 1.6 1.6 0.05 2.69 0.18 99 1009.1
20260505234503 7 335 0.0 1.6 0.05 2.69 0.18 99 1008.7
20260505234003 7 334 0.0 1.6 0.10 2.69 0.18 99 1008.9
20260505233503 7 356 0.0 1.6 0.10 2.69 0.18 99 1008.9
20260505233003 7 343 0.0 1.6 0.10 2.69 0.18 99 1008.9
20260505232504 7 320 0.0 3.2 0.10 2.69 0.18 99 1009.0
20260505232004 7 315 1.6 3.2 0.10 2.69 0.18 99 1009.0
20260505231504 7 315 0.0 1.6 0.10 2.69 0.18 99 1009.2
20260505231004 7 94 0.0 1.6 0.10 2.67 0.15 99 1009.4
20260505230504 7 96 0.0 1.6 0.15 2.67 0.15 99 1009.3
20260505230004 7 322 0.0 1.6 0.15 2.67 0.15 99 1009.2
20260505225504 7 323 0.0 1.6 0.13 2.64 0.13 99 1009.2
20260505225004 7 359 0.0 1.6 0.15 2.64 0.13 99 1009.1
20260505224504 7 342 0.0 3.2 0.15 2.64 0.13 99 1009.2
20260505224004 7 309 0.0 3.2 0.13 2.62 0.10 99 1008.9
20260505223504 7 315 0.0 1.6 0.13 2.62 0.10 99 1009.1
20260505223004 7 318 0.0 3.2 0.15 2.62 0.10 99 1009.1
20260505222504 7 331 0.0 3.2 0.18 2.62 0.10 99 1009.2
20260505222004 7 51 0.0 1.6 0.18 2.62 0.10 99 1009.2
20260505221713 7 320 0.0 3.2 0.18 2.62 0.10 99 1009.4
20260505221004 7 315 0.0 3.2 0.18 2.59 0.05 99 1009.4
20260505220504 7 0 0.0 0.0 0.15 2.51 0.00 99 1009.5
20260505220004 7 360 0.0 1.6 0.15 2.51 0.00 99 1009.3
20260505215715 7 340 0.0 1.6 0.15 2.51 2.51 99 1009.3
20260505215003 7 323 0.0 3.2 0.13 2.49 2.49 99 1009.3
20260505214504 7 22 1.6 3.2 0.15 2.49 2.49 99 1009.5
20260505214214 7 61 0.0 1.6 0.15 2.49 2.49 99 1009.5
20260505213503 7 327 0.0 3.2 0.20 2.46 2.46 99 1009.5
20260505213003 7 315 1.6 3.2 0.23 2.46 2.46 99 1009.6
20260505212718 7 315 0.0 3.2 0.23 2.44 2.44 99 1009.8
20260505212003 7 120 0.0 3.2 0.28 2.44 2.44 99 1009.7
20260505211503 7 115 0.0 3.2 0.23 2.39 2.39 99 1009.9
20260505211003 7 281 0.0 3.2 0.23 2.39 2.39 99 1009.7
20260505210503 7 244 0.0 1.6 0.23 2.36 2.36 99 1009.8
20260505210004 7 114 0.0 3.2 0.23 2.36 2.36 99 1009.9
20260505205715 7 17 0.0 4.8 0.23 2.36 2.36 99 1009.7
20260505205004 7 317 1.6 6.4 0.28 2.36 2.36 99 1010.0
20260505204503 7 311 3.2 6.4 0.23 2.34 2.34 99 1009.8
20260505204004 7 167 4.8 6.4 0.23 2.31 2.31 99 1010.0
20260505203718 7 134 0.0 3.2 0.20 2.26 2.26 99 1010.0
20260505203003 7 15 1.6 3.2 0.15 2.18 2.18 99 1010.1
20260505202503 7 315 0.0 3.2 0.15 2.18 2.18 99 1009.8
20260505202004 7 291 1.6 1.6 0.13 2.16 2.16 99 1009.8
20260505201503 7 268 0.0 3.2 0.13 2.16 2.16 99 1009.9
20260505201003 7 204 0.0 3.2 0.13 2.16 2.16 99 1009.7
20260505200503 7 147 0.0 1.6 0.10 2.13 2.13 99 1009.7
20260505200003 7 70 0.0 3.2 0.13 2.13 2.13 99 1009.7
20260505195716 7 337 0.0 3.2 0.13 2.13 2.13 99 1009.7
20260505195003 7 315 3.2 4.8 0.10 2.11 2.11 99 1009.6
20260505194503 7 313 1.6 4.8 0.10 2.11 2.11 99 1009.7
20260505194215 7 163 1.6 4.8 0.10 2.06 2.06 99 1009.7
20260505193503 7 117 0.0 3.2 0.05 2.03 2.03 99 1009.8
20260505193216 7 94 0.0 1.6 0.05 2.03 2.03 99 1009.5
20260505192504 7 108 0.0 3.2 0.10 2.03 2.03 99 1009.6
20260505192004 7 326 1.6 3.2 0.10 2.03 2.03 99 1009.7
20260505191504 7 308 0.0 3.2 0.13 2.03 2.03 99 1009.6
20260505191004 7 96 1.6 3.2 0.13 2.03 2.03 99 1009.7
20260505190504 7 111 0.0 3.2 0.13 2.03 2.03 99 1009.5
20260505190004 7 124 1.6 3.2 0.10 2.01 2.01 99 1009.8
20260505185717 7 135 0.0 1.6 0.10 2.01 2.01 99 1009.5
20260505185004 7 135 0.0 3.2 0.13 2.01 2.01 99 1009.7
20260505184504 7 135 0.0 3.2 0.13 2.01 2.01 99 1009.5
20260505184216 7 135 0.0 3.2 0.10 1.98 2.01 99 1009.6
20260505183714 7 315 0.0 1.6 0.13 1.98 1.98 99 1009.6
20260505183004 7 317 0.0 3.2 0.13 1.98 1.98 99 1009.3
20260505182504 7 314 1.6 4.8 0.13 1.96 1.96 99 1009.3
20260505182004 7 304 3.2 4.8 0.13 1.96 1.96 99 1009.3
20260505181504 7 104 0.0 3.2 0.10 1.93 1.93 99 1009.6
20260505181213 7 62 0.0 3.2 0.10 1.93 1.93 99 1009.5
20260505180504 7 328 0.0 3.2 0.13 1.93 1.93 99 1009.4
20260505180003 7 314 0.0 3.2 0.13 1.93 1.93 99 1009.2
20260505175503 7 309 1.6 3.2 0.13 1.93 1.93 99 1009.5
20260505175215 7 161 3.2 3.2 0.10 1.88 1.88 99 1009.5
20260505174503 7 138 0.0 1.6 0.10 1.88 1.88 99 1009.5
20260505174003 7 313 0.0 1.6 0.05 1.85 1.85 99 1009.4
20260505173503 7 315 0.0 1.6 0.05 1.85 1.85 99 1009.6
20260505173003 7 315 0.0 1.6 0.10 1.85 1.85 99 1009.7
20260505172503 7 110 0.0 1.6 0.05 1.83 1.83 99 1009.4
20260505172003 7 56 0.0 1.6 0.05 1.83 1.83 99 1009.6
20260505171503 7 315 0.0 1.6 0.05 1.83 1.83 99 1009.4
20260505171214 7 315 0.0 1.6 0.05 1.83 1.83 99 1009.6
20260505170503 7 315 0.0 1.6 0.03 1.80 1.80 99 1009.4
20260505170215 7 315 0.0 1.6 0.03 1.80 1.80 99 1009.4
20260505165503 7 0 0.0 0.0 0.03 1.80 1.80 99 1009.6
20260505165003 7 315 0.0 1.6 0.03 1.80 1.80 99 1009.6
20260505164503 7 315 0.0 1.6 0.03 1.80 1.80 99 1009.5
20260505164003 7 315 0.0 1.6 0.03 1.80 1.80 99 1009.7
20260505163715 7 315 0.0 1.6 0.03 1.80 1.80 99 1009.7
20260505163218 7 315 0.0 1.6 0.03 1.78 1.78 99 1009.9
20260505162504 7 180 0.0 1.6 0.03 1.78 1.78 99 1009.8
20260505162004 7 151 0.0 1.6 0.03 1.78 1.78 99 1009.5
20260505161504 7 135 0.0 1.6 0.03 1.78 1.78 99 1009.6
20260505161004 7 135 0.0 1.6 0.03 1.78 1.78 99 1009.6
20260505160504 7 136 0.0 1.6 0.03 1.78 1.78 99 1009.6
20260505160216 7 167 0.0 1.6 0.03 1.78 1.78 99 1009.6
20260505153004 7 129 0.0 3.2 0.00 1.75 1.75 99 1010.0
20260505152717 7 128 1.6 1.6 0.03 1.75 1.75 99 1010.0
20260505152004 7 144 0.0 1.6 0.03 1.75 1.75 99 1009.9
20260505151504 7 149 0.0 1.6 0.03 1.75 1.75 99 1009.8
20260505151004 7 138 0.0 1.6 0.03 1.75 1.75 99 1009.8
20260505150503 7 136 0.0 3.2 0.05 1.75 1.75 99 1010.0
20260505140503 7 142 0.0 3.2 0.05 1.68 1.68 99 1010.2
20260505130218 8 154 1.6 3.2 0.10 1.63 1.63 98 1010.4
20260505124504 8 139 0.0 3.2 0.05 1.60 1.60 98 1010.3
20260505124004 7 159 0.0 3.2 0.05 1.55 1.55 98 1010.3
20260505123504 7 154 1.6 3.2 0.05 1.55 1.55 97 1010.5
20260505123215 7 140 1.6 3.2 0.05 1.55 1.55 97 1010.4
20260505122504 7 131 0.0 3.2 0.03 1.52 1.52 97 1010.4
20260505122004 7 125 1.6 3.2 0.03 1.52 1.52 96 1010.4
20260505121504 7 117 1.6 3.2 0.03 1.52 1.52 96 1010.5
20260505121004 8 317 1.6 3.2 0.05 1.52 1.52 96 1010.6
20260505120504 7 314 3.2 4.8 0.05 1.52 1.52 96 1010.5
20260505120004 7 292 3.2 4.8 0.10 1.52 1.52 96 1010.3
20260505115716 7 221 3.2 3.2 0.10 1.52 1.52 95 1010.6
20260505115003 8 150 3.2 4.8 0.10 1.52 1.52 95 1010.5